User: anonymous   Login
Location: Biharia
(46.4333°N, 22.8000°E)
Time: 00:27:51
(UTC+00:00)
Language:

H-2A R/B - Orbit

View from above orbital plane
View from above orbital plane
View from above satellite
View from above satellite

Ground track
Ground track

The orbit data is extracted from the following two-line orbital elements,

1 38341U 12025E   22026.52819983  .00000494  00000-0  64684-4 0  9995
2 38341  98.5179 232.2525 0055823 142.0220 218.4949 14.84407035524593
Epoch (UTC): 26 January 2022 12:40:36
Eccentricity: 0.0055823
inclination: 98.5179°
perigee height: 576 km
apogee height: 654 km
right ascension of ascending node: 232.2525°
argument of perigee: 142.0220°
revolutions per day: 14.84407035
mean anomaly at epoch: 218.4949°
orbit number at epoch: 52459

The dashed part of the orbit path shows where the satellite is in the earth's shadow,  

DLR